Regional Weather Roundup
Issued by NWS

Home | Current Version | Previous Version | Text Only | Print | Product List | Glossary On
Versions: 1 2 3 4 5 6 7 8 9 10 11 12 13 14 15 16 17 18 19 20 21 22 23 24 25 26 27 28 29 30 31 32 33 34 35 36 37 38 39 40 41 42 43 44 45 46 47 48 49 50
000
ASUS42 KKEY 221510
RWRKEY

FLORIDA REGIONAL WEATHER ROUNDUP FOR THE FLORIDA KEYS
NATIONAL WEATHER SERVICE KEY WEST FLORIDA
1100 AM EDT TUE JUL 22 2014

...SOUTH FLORIDA AND THE KEYS...

CITY           SKY/WX    TMP DP  RH WIND       PRES   REMARKS
FORT MYERS     SUNNY     85  76  74 S7        30.06R HX  94
SW REGIONAL AP MOSUNNY   83  75  77 SW7       30.07R HX  90
NAPLES         MOSUNNY   85  78  80 SW12      30.06R THUNDER HX  96
MIAMI          PTSUNNY   85  75  72 SE7       30.08R HX  93
WEST KENDALL   PTSUNNY   86  76  71 SE6       30.08R THUNDER HX  96
HOMESTEAD      TSTM      79  73  83 S3        30.08R
MARATHON       CLOUDY    81  75  82 N8        30.07S
BOCA CHICA NAS CLOUDY    82  73  74 W8        30.09R THUNDER
KEY WEST INTL  CLOUDY    82  73  74 W13       30.08R

...INTERNATIONAL WEATHER...

CITY           SKY/WX    TMP DP  RH WIND       PRES   REMARKS
NASSAU BAHAMAS MOSUNNY   88  75  66 S9        30.09S HX  97
CANCUN MEXICO  MOSUNNY   88  73  62 CALM      30.04S HX  96
COZUMEL MEXICO MOSUNNY   86  75  70 E3        30.04R HX  95

ADJACENT COASTAL WATERS...

STATION/POSITION TIME  SKY/WX   TEMP    WIND        PRES    WAVE
                                AIR SEA DIR/SP/G            HT/PER
                 (UTC)          (F)     (DEG/KT/KT) (MB)    (FT/S)
PULASKI SHOAL LI 1500            79     190/  5/  6 1018.2R
SAND KEY         1500            75      90/  7/ 10 1018.8R
SOMBRERO KEY     1400            82     360/  9/ 10 1018.7R
LONG KEY         1400            80 88  320/ 15/ 18 1019.0R
MOLASSES REEF    1400            84 86  170/  7/  8 1017.9R
FOWEY ROCKS      1400            81 85   90/  4/  6 1018.2R
Buoy 42080       NOT AVBL

$$



USA.gov is the U.S. government's official web portal to all federal, state and local government web resources and services.